User: anonymous   Login
Location: ??????
(41.3164°N, 22.6615°E)
Time: 01:06:42
(UTC+00:00)
Language:

THOR BURNER 2A DEB - Orbit

View from above orbital plane
View from above orbital plane
View from above satellite
View from above satellite

Ground track
Ground track

The orbit data is extracted from the following two-line orbital elements,

1 28593U 74015E   23033.15711788  .00001297  00000-0  47636-3 0  9991
2 28593  99.0593 356.4675 0063891 120.2865 240.4661 14.33393991938436
Epoch (UTC): 02 February 2023 03:46:14
Eccentricity: 0.0063891
inclination: 99.0593°
perigee height: 734 km
apogee height: 826 km
right ascension of ascending node: 356.4675°
argument of perigee: 120.2865°
revolutions per day: 14.33393991
mean anomaly at epoch: 240.4661°
orbit number at epoch: 93843

The dashed part of the orbit path shows where the satellite is in the earth's shadow,  

DLR